COSMOS 252 DEB, 3549

Orbit data source: Space-Track

COSMOS 252 DEB, 3549 is space debris in LEO originally from a launch on Fri, 01 Nov 1968 UTC launched from the Tyuratam Missile And Space Complex (TTMTR). Debris objects in space refer to the collection of defunct objects orbiting the Earth. Examples of debris include non-operational satellites, rocket bodies, and fragments generated from explosions, collisions, or faulty payload assembly.

Loading next visibility...
Identifier
3549, 1968-097B
Orbit
LEO
Country
Flag of CISCIS
Related business
Manufacturer
Unknown
Mission
Spacecraft
Bus & Motor
Unknown
Mass
Unknown
Launch date (UTC)
1968-11-01 (58 years ago)
Launch vehicle
Unknown
Launch site
Tyuratam Missile And Space Complex (TTMTR)
Object type
Payload
Rocket body
Debris
Shape & HBR
Unknown shape, 0.1 m
Radar Cross Section
Small (<0.1 m²)

Expand to show TLE details & history
Last TLE update: 14 hours ago

TLE from 14 hours ago
0 COSMOS 252 DEB
1  3549U 68097B   26138.43486262  .00003025  00000-0  34023-3 0  9991
2  3549  62.2978 304.3321 0268194 338.4752  20.5213 14.66272416865679
Epoch: 2026-05-18T10:26Z
TLE epoch observation values (Epoch: 2026-05-18T10:26:12.130Z)
Latitude
0.00002°
Longitude
-88.3416°
Altitude
498.293 km
Speed
7.711 km/s
True Right ascension
20h 17m 19s
True Declination
0° 00' 00"
Sunlit
Object was in daylight at epoch
Visualization orbit readout
Latitude
Unknown
Longitude
Unknown
Altitude
Unknown
Speed
Unknown
Apparent Right ascension
Unknown
Apparent Declination
Unknown
Sunlit
N/A
Visualization observer readout
Local Sidereal Time
09:35:50
Azimuth
Unknown
Elevation
Unknown
Doppler factor
Unknown
Orbital elements
Apogee altitude
860.976 km
Perigee altitude
482.82 km
Semi-major axis
7,050.035 km
Eccentricity
0.02682
Inclination
62.2978°
RAAN
304.3321°
Arg. of periapsis
338.4752°
True anomaly
21.63346°
Mean anomaly
20.5213°
Eccentric anomaly
21.07383°
Mean motion
3.66654 °/min
Orbital period
98.19 mins
BSTAR
0.00034023
Loading maneuver chart data...
Computing Atmospheric mass density...

Documentation

Showing up to 5 results
|